User: anonymous   Login
Location: Unspecified
(0.0000°N, 0.0000°E)
Time: 03:20:44
(UTC+00:00)
Language:

STARLINK-2536 - Orbit

View from above orbital plane
View from above orbital plane
View from above satellite
View from above satellite

Ground track
Ground track

The orbit is defined by the following mean orbital elements,

1 48310U          26145.24108176 +.00000000 +00000-0 +41649-5 0 00005
2 48310  53.1620  95.3825 0001696  88.7743 271.3453 15.31703075    03
Epoch (UTC): 25 May 2026 05:47:09
Eccentricity: 0.0001696
inclination: 53.1620°
perigee height: 470 km
apogee height: 472 km
right ascension of ascending node: 95.3825°
argument of perigee: 88.7743°
revolutions per day: 15.31703075
mean anomaly at epoch: 271.3453°

The dashed part of the orbit path shows where the satellite is in the earth's shadow,  

DLR